�N����,����,�~����,�C��,���x,�C��,����,���ϕ���,�ő�u�ԕ���,�ő厞����,���˗�,�I�_���x,�n�����x,�ő啗���N��,DTYPE
"16/06/07","00:10",0.0,20.9,70.5,1009.7,359.3,0.7,1.9,337.6,0.00,15.4,21.3,"00:02:16",1
"16/06/07","00:20",0.0,20.9,70.5,1009.7,346.1,0.7,1.6,341.9,0.00,15.4,21.4,"00:13:36",1
"16/06/07","00:30",0.0,20.9,70.7,1009.5,359.4,0.7,2.6,351.0,0.00,15.4,21.2,"00:27:52",1
"16/06/07","00:40",0.0,20.8,71.1,1009.5,334.3,0.3,1.2,335.3,0.00,15.4,21.2,"00:39:04",1
"16/06/07","00:50",0.0,20.7,71.6,1009.3,351.5,0.3,1.0,21.2,0.00,15.4,21.2,"00:41:20",1
"16/06/07","01:00",0.0,20.6,71.9,1009.7,323.5,0.7,1.6,313.5,0.00,15.4,21.0,"00:59:44",1
"16/06/07","01:10",0.0,20.6,72.2,1009.3,341.0,0.6,1.4,323.9,0.00,15.5,21.0,"01:04:00",1
"16/06/07","01:20",0.0,20.6,72.4,1009.3,344.7,0.5,1.2,325.4,0.00,15.5,21.1,"01:12:56",1
"16/06/07","01:30",0.0,20.5,72.8,1009.3,311.6,0.3,1.1,14.8,0.00,15.5,21.2,"01:28:08",1
"16/06/07","01:40",0.0,20.5,73.0,1009.3,321.6,0.6,1.8,328.9,0.00,15.5,20.8,"01:32:24",1
"16/06/07","01:50",0.0,20.4,73.0,1009.0,310.3,0.3,1.0,80.3,0.00,15.4,21.0,"01:40:24",1
"16/06/07","02:00",0.0,20.3,73.1,1009.0,290.7,0.2,1.0,311.1,0.00,15.4,20.9,"01:56:24",1
"16/06/07","02:10",0.0,20.1,74.2,1008.8,318.9,1.0,1.6,334.5,0.00,15.4,21.1,"02:06:56",1
"16/06/07","02:20",0.0,20.2,74.5,1008.6,324.3,0.6,1.4,335.9,0.00,15.6,20.8,"02:10:40",1
"16/06/07","02:30",0.0,20.2,75.0,1008.6,338.4,0.5,1.1,295.0,0.00,15.7,21.0,"02:28:56",1
"16/06/07","02:40",0.0,20.2,75.2,1008.6,343.1,0.3,1.7,337.1,0.00,15.7,20.8,"02:37:44",1
"16/06/07","02:50",0.0,20.3,74.3,1008.6,33.6,0.5,1.2,77.9,0.00,15.6,20.9,"02:42:32",1
"16/06/07","03:00",0.0,20.3,74.0,1008.8,11.4,0.5,1.1,332.8,0.00,15.6,20.8,"02:51:04",1
"16/06/07","03:10",0.0,20.4,74.2,1008.6,346.3,0.7,2.2,341.2,0.00,15.7,20.7,"03:04:56",1
"16/06/07","03:20",0.0,20.4,74.3,1008.6,336.7,0.5,2.1,344.1,0.00,15.7,20.8,"03:12:40",1
"16/06/07","03:30",0.0,20.4,74.8,1008.6,359.1,0.5,1.6,41.9,0.00,15.8,20.7,"03:23:04",1
"16/06/07","03:40",0.0,20.4,74.5,1008.8,24.0,0.6,2.0,23.0,0.00,15.8,20.8,"03:39:36",1
"16/06/07","03:50",0.0,20.4,75.4,1008.6,259.5,0.3,1.0,141.2,0.00,15.9,20.6,"03:45:52",1
"16/06/07","04:00",0.0,20.3,75.7,1008.6,357.9,0.3,1.0,61.2,0.00,15.9,20.7,"03:51:12",1
"16/06/07","04:10",0.0,20.1,76.0,1008.1,269.3,0.2,0.9,250.6,0.00,15.8,20.8,"04:01:20",1
"16/06/07","04:20",0.0,20.1,76.3,1008.6,322.1,1.0,1.9,332.8,0.00,15.8,20.7,"04:16:40",1
"16/06/07","04:30",0.0,20.2,76.3,1008.3,337.7,0.6,1.9,323.8,0.00,15.9,20.7,"04:26:40",1
"16/06/07","04:40",0.0,20.3,76.3,1008.6,320.2,0.5,1.2,30.7,0.00,16.0,20.6,"04:30:02",1
"16/06/07","04:50",0.0,20.3,76.4,1008.8,320.3,0.3,0.9,35.6,0.00,16.1,20.5,"04:40:32",1
"16/06/07","05:00",0.0,20.4,76.4,1009.3,41.5,0.5,1.2,83.4,0.00,16.2,20.5,"04:57:52",1
"16/06/07","05:10",0.0,20.5,76.1,1008.8,319.0,0.5,1.1,321.7,0.00,16.2,20.5,"05:05:04",1
"16/06/07","05:20",0.0,20.5,76.3,1008.8,310.8,1.0,2.1,329.3,0.00,16.2,20.7,"05:16:48",1
"16/06/07","05:30",0.0,20.7,77.0,1009.0,109.6,0.5,1.2,213.9,0.00,16.6,20.5,"05:20:16",1
"16/06/07","05:40",0.0,20.7,76.6,1008.3,325.1,0.7,1.6,76.8,0.00,16.5,20.5,"05:34:48",1
"16/06/07","05:50",0.0,20.7,76.0,1008.6,325.4,0.7,1.4,331.7,0.00,16.4,20.6,"05:40:24",1
"16/06/07","06:00",0.0,20.9,75.3,1008.8,351.9,0.5,1.1,314.5,0.00,16.4,20.6,"05:58:48",1
"16/06/07","06:10",0.0,20.9,74.6,1008.8,328.4,0.5,2.0,327.5,0.00,16.3,20.6,"06:03:04",1
"16/06/07","06:20",0.0,21.1,75.9,1008.8,316.2,0.8,1.6,325.8,0.00,16.7,20.6,"06:14:24",1
"16/06/07","06:30",0.0,21.0,75.8,1008.8,311.9,0.6,2.2,319.4,0.00,16.6,20.6,"06:22:16",1
"16/06/07","06:40",0.0,21.0,75.5,1009.3,289.5,0.8,2.6,150.5,0.00,16.5,20.5,"06:31:12",1
"16/06/07","06:50",0.0,21.1,76.3,1009.0,338.8,0.8,2.0,338.0,0.01,16.8,20.5,"06:45:44",1
"16/06/07","07:00",0.0,21.2,76.6,1008.8,330.5,0.3,0.9,286.0,0.03,17.0,20.4,"06:54:08",1
"16/06/07","07:10",0.0,21.2,76.9,1009.0,347.4,0.8,2.1,8.4,0.04,17.0,20.7,"07:02:40",1
"16/06/07","07:20",0.0,21.3,77.4,1008.6,324.6,1.0,3.3,328.8,0.05,17.2,20.5,"07:14:40",1
"16/06/07","07:30",0.0,21.6,77.1,1008.6,343.8,0.6,2.1,354.8,0.07,17.5,20.5,"07:21:28",1
"16/06/07","07:40",0.0,21.9,75.1,1008.6,80.3,0.7,2.8,150.7,0.09,17.3,20.8,"07:34:16",1
"16/06/07","07:50",0.0,22.0,73.9,1008.8,72.0,0.7,1.7,86.2,0.07,17.2,20.8,"07:45:36",1
"16/06/07","08:00",0.0,21.8,74.1,1008.6,90.2,0.7,2.0,111.3,0.05,17.0,21.0,"07:50:56",1
"16/06/07","08:10",0.0,21.8,74.1,1008.3,95.1,0.8,2.9,136.6,0.06,17.0,20.8,"08:08:40",1
"16/06/07","08:20",0.0,21.6,75.0,1008.3,95.5,0.8,1.9,178.3,0.05,17.0,20.9,"08:14:40",1
"16/06/07","08:30",0.0,21.6,76.1,1008.3,139.1,0.8,2.5,125.9,0.05,17.3,21.0,"08:29:20",1
"16/06/07","08:40",0.0,21.5,78.2,1008.3,111.6,0.6,3.2,162.8,0.07,17.6,20.8,"08:30:08",1
"16/06/07","08:50",0.0,21.4,77.6,1008.6,37.0,0.8,2.5,125.5,0.06,17.4,21.0,"08:43:20",1
"16/06/07","09:00",0.0,21.5,78.5,1008.3,55.0,0.6,1.6,323.0,0.07,17.6,20.9,"08:50:40",1
"16/06/07","09:10",0.0,21.5,78.4,1008.3,80.2,0.8,2.0,122.9,0.07,17.6,21.2,"09:08:16",1
"16/06/07","09:20",0.0,21.5,79.5,1008.3,20.2,0.5,1.4,355.7,0.10,17.8,21.1,"09:10:08",1
"16/06/07","09:30",0.0,21.5,78.7,1008.6,113.1,0.8,3.3,124.6,0.09,17.7,21.2,"09:27:20",1
"16/06/07","09:40",0.0,21.7,79.1,1008.6,345.1,0.6,2.6,136.5,0.07,18.0,21.0,"09:33:44",1
"16/06/07","09:50",0.0,21.6,78.9,1008.6,16.4,0.6,2.0,357.4,0.06,17.8,21.2,"09:47:52",1
"16/06/07","10:00",0.0,21.5,78.2,1008.3,344.9,0.7,1.8,339.7,0.06,17.6,21.4,"09:58:00",1
"16/06/07","10:10",0.0,21.5,78.8,1008.6,329.0,0.8,2.4,340.4,0.06,17.7,21.1,"10:04:08",1
"16/06/07","10:20",0.0,21.5,78.1,1008.3,336.3,1.0,2.2,342.4,0.06,17.6,21.4,"10:18:40",1
"16/06/07","10:30",0.0,21.4,79.3,1008.3,10.2,0.5,1.3,344.2,0.06,17.7,21.3,"10:20:08",1
"16/06/07","10:40",0.2,21.1,79.8,1008.3,7.3,0.7,2.2,11.6,0.05,17.5,21.2,"10:39:28",1
"16/06/07","10:50",0.0,21.0,81.5,1008.8,331.7,0.7,2.0,336.4,0.04,17.8,21.2,"10:42:00",1
"16/06/07","11:00",1.4,20.9,83.6,1009.3,325.8,0.8,2.0,346.4,0.04,18.1,21.2,"10:58:08",1
"16/06/07","11:10",0.4,20.6,84.1,1008.8,324.5,0.5,1.2,349.4,0.05,17.9,21.2,"11:04:00",1
"16/06/07","11:20",0.2,20.7,84.9,1008.8,46.4,0.2,0.8,92.4,0.08,18.1,21.2,"11:13:04",1
"16/06/07","11:30",0.0,20.7,85.2,1008.6,146.3,0.5,1.8,93.5,0.08,18.2,21.2,"11:27:20",1
"16/06/07","11:40",0.2,20.8,84.7,1008.6,2.1,0.6,1.8,358.6,0.08,18.2,21.2,"11:38:32",1
"16/06/07","11:50",0.0,20.7,86.1,1008.8,26.0,0.5,1.3,346.6,0.09,18.3,21.4,"11:46:32",1
"16/06/07","12:00",0.2,20.6,87.1,1008.3,6.8,0.6,1.8,6.7,0.10,18.4,21.4,"11:54:32",1
"16/06/07","12:10",0.2,20.8,85.4,1008.8,341.6,0.7,2.1,356.1,0.08,18.3,21.5,"12:05:28",1
"16/06/07","12:20",0.0,20.8,85.4,1009.0,15.5,0.5,1.2,6.2,0.05,18.3,21.4,"12:13:28",1
"16/06/07","12:30",0.2,20.8,86.1,1008.6,45.9,0.3,1.4,46.9,0.06,18.4,21.4,"12:24:40",1
"16/06/07","12:40",0.0,20.8,86.4,1009.0,26.7,0.5,1.9,58.1,0.07,18.5,21.5,"12:37:04",1
"16/06/07","12:50",0.2,20.7,86.4,1008.6,30.6,0.6,1.6,10.7,0.06,18.4,21.3,"12:45:12",1
"16/06/07","13:00",0.2,20.8,85.6,1008.6,44.8,0.5,1.2,11.5,0.08,18.3,21.4,"12:53:52",1
"16/06/07","13:10",0.0,21.0,85.8,1008.6,28.3,0.6,1.6,136.7,0.09,18.6,21.5,"13:00:16",1
"16/06/07","13:20",0.2,21.0,85.6,1008.8,0.4,0.5,1.4,42.7,0.06,18.5,21.5,"13:14:00",1
"16/06/07","13:30",0.0,21.0,85.3,1008.1,347.3,0.5,1.1,336.0,0.06,18.5,21.6,"13:26:00",1
"16/06/07","13:40",0.2,21.1,86.0,1007.6,348.5,0.3,1.3,334.3,0.08,18.7,21.6,"13:35:52",1
"16/06/07","13:50",0.2,21.0,86.9,1007.6,359.7,0.6,1.3,49.4,0.10,18.8,21.7,"13:45:28",1
"16/06/07","14:00",0.2,21.2,86.4,1007.6,14.9,0.5,1.7,348.0,0.09,18.9,21.5,"13:53:44",1
"16/06/07","14:10",0.0,21.2,85.5,1007.6,26.3,0.6,1.3,9.9,0.07,18.7,21.5,"14:07:04",1
"16/06/07","14:20",0.2,21.1,85.6,1007.6,357.1,0.5,1.4,344.5,0.06,18.6,21.6,"14:14:32",1
"16/06/07","14:30",0.0,21.1,86.3,1007.4,18.1,0.6,1.4,348.3,0.07,18.8,21.5,"14:24:08",1
"16/06/07","14:40",0.2,20.9,85.6,1007.4,4.1,0.7,1.9,336.5,0.08,18.4,21.8,"14:36:16",1
"16/06/07","14:50",0.2,20.9,85.1,1007.6,357.0,0.7,2.7,336.7,0.06,18.3,21.7,"14:45:20",1
"16/06/07","15:00",0.0,21.0,85.3,1007.4,46.7,0.1,0.6,85.1,0.04,18.5,21.7,"14:59:28",1
"16/06/07","15:10",0.0,20.9,85.6,1007.4,35.3,0.2,0.9,355.3,0.02,18.4,21.5,"15:03:04",1
"16/06/07","15:20",0.0,20.7,86.9,1007.1,131.3,0.3,1.3,125.5,0.02,18.5,21.8,"15:15:20",1
"16/06/07","15:30",0.0,20.7,87.5,1007.1,14.5,0.5,1.4,346.5,0.03,18.6,21.7,"15:27:44",1
"16/06/07","15:40",0.2,20.7,87.6,1007.4,355.7,0.5,1.1,309.4,0.03,18.6,21.6,"15:32:00",1
"16/06/07","15:50",0.0,20.7,88.2,1007.1,76.0,0.2,0.6,131.5,0.02,18.7,21.6,"15:43:44",1
"16/06/07","16:00",0.0,20.6,87.7,1007.1,27.5,0.6,1.1,355.3,0.02,18.5,21.7,"15:54:16",1
"16/06/07","16:10",0.0,20.7,87.7,1007.4,342.4,0.6,1.3,336.0,0.04,18.6,21.6,"16:09:20",1
"16/06/07","16:20",0.0,20.8,88.0,1007.4,349.4,0.7,1.6,342.2,0.05,18.8,21.6,"16:16:40",1
"16/06/07","16:30",0.0,20.9,87.6,1007.4,80.7,0.3,1.4,106.2,0.04,18.8,21.6,"16:28:40",1
"16/06/07","16:40",0.0,20.9,86.4,1007.4,119.1,0.7,2.7,115.8,0.05,18.6,21.6,"16:31:52",1
"16/06/07","16:50",0.0,20.8,86.2,1007.1,147.3,0.7,2.2,115.7,0.04,18.4,21.4,"16:41:52",1
"16/06/07","17:00",0.0,20.7,85.8,1007.1,122.9,0.8,2.1,122.0,0.03,18.3,21.5,"16:58:48",1
"16/06/07","17:10",0.0,20.6,85.8,1006.9,99.9,0.6,2.0,136.3,0.02,18.2,21.3,"17:01:44",1
"16/06/07","17:20",0.0,20.4,85.9,1007.1,94.9,0.5,1.4,15.9,0.00,18.0,21.6,"17:16:40",1
"16/06/07","17:30",0.0,20.4,86.6,1006.9,52.0,0.5,2.0,123.4,0.00,18.1,21.5,"17:20:56",1
"16/06/07","17:40",0.0,20.3,87.1,1006.9,14.5,0.5,1.1,341.5,0.00,18.1,21.4,"17:37:28",1
"16/06/07","17:50",0.2,20.2,87.3,1006.9,45.7,0.5,1.4,351.7,0.00,18.1,21.4,"17:48:56",1
"16/06/07","18:00",0.0,20.1,87.9,1006.7,55.7,0.3,1.4,76.3,0.00,18.1,21.2,"17:55:36",1
"16/06/07","18:10",0.4,19.9,87.9,1006.7,68.7,0.6,1.7,84.7,0.00,17.9,21.1,"18:04:48",1
"16/06/07","18:20",0.0,19.8,88.0,1006.9,12.5,0.6,1.3,81.9,0.00,17.8,21.3,"18:10:32",1
"16/06/07","18:30",0.2,19.8,88.6,1006.9,350.5,0.6,1.6,353.5,0.00,17.9,21.3,"18:20:32",1
"16/06/07","18:40",0.0,19.6,89.1,1006.4,36.1,0.5,1.6,38.0,0.00,17.8,20.9,"18:35:20",1
"16/06/07","18:50",0.0,19.6,89.4,1006.7,13.0,0.5,1.6,117.9,0.00,17.8,21.2,"18:40:02",1
"16/06/07","19:00",0.2,19.5,89.6,1006.7,25.5,0.5,1.1,64.2,0.00,17.8,21.1,"18:52:40",1
"16/06/07","19:10",0.0,19.5,89.9,1006.7,352.2,0.3,0.8,20.6,0.00,17.8,20.9,"19:05:24",1
"16/06/07","19:20",0.0,19.4,90.0,1007.1,338.2,0.6,1.2,338.7,0.00,17.8,20.9,"19:18:48",1
"16/06/07","19:30",0.0,19.3,90.4,1006.7,323.9,0.8,1.3,322.4,0.00,17.7,20.9,"19:23:44",1
"16/06/07","19:40",0.0,19.1,90.9,1006.9,304.4,0.7,1.2,311.6,0.00,17.6,20.7,"19:33:20",1
"16/06/07","19:50",0.0,19.0,91.3,1006.7,321.4,0.6,1.3,332.6,0.00,17.6,20.9,"19:49:28",1
"16/06/07","20:00",0.0,18.9,91.8,1006.7,328.8,1.0,1.9,334.4,0.00,17.6,20.9,"19:50:40",1
"16/06/07","20:10",0.0,18.9,92.1,1006.9,279.8,0.7,1.2,244.9,0.00,17.6,20.9,"20:08:56",1
"16/06/07","20:20",0.0,18.8,92.4,1006.9,301.2,0.8,1.3,338.3,0.00,17.6,20.7,"20:17:20",1
"16/06/07","20:30",0.0,18.8,92.7,1007.1,324.7,0.6,1.1,330.4,0.00,17.6,20.7,"20:22:16",1
"16/06/07","20:40",0.0,18.8,92.8,1007.4,288.7,0.6,0.9,318.3,0.00,17.7,20.8,"20:39:52",1
"16/06/07","20:50",0.0,18.8,93.2,1007.4,300.1,0.6,1.0,319.5,0.00,17.7,20.6,"20:44:40",1
"16/06/07","21:00",0.0,18.8,93.3,1007.6,288.3,0.7,0.9,272.4,0.00,17.7,20.6,"20:53:20",1
"16/06/07","21:10",0.0,18.8,93.4,1007.6,304.7,0.7,1.1,312.0,0.00,17.8,20.7,"21:02:16",1
"16/06/07","21:20",0.0,18.8,93.4,1007.4,294.4,0.7,1.1,305.3,0.00,17.8,20.5,"21:18:40",1
"16/06/07","21:30",0.0,18.8,93.5,1007.6,284.0,0.6,0.9,289.2,0.00,17.8,20.7,"21:28:08",1
"16/06/07","21:40",0.0,18.8,93.5,1007.8,309.0,0.6,1.1,306.6,0.00,17.8,20.6,"21:30:24",1
"16/06/07","21:50",0.0,18.8,93.6,1007.6,303.7,0.6,0.9,324.7,0.00,17.8,20.6,"21:40:08",1
"16/06/07","22:00",0.0,18.8,93.5,1007.8,302.0,0.7,1.1,307.4,0.00,17.8,20.4,"21:59:52",1
"16/06/07","22:10",0.0,18.7,93.6,1007.8,311.0,1.1,1.6,323.2,0.00,17.7,20.6,"22:04:40",1
"16/06/07","22:20",0.0,18.7,93.7,1008.1,271.5,0.3,1.2,319.7,0.00,17.7,20.4,"22:13:04",1
"16/06/07","22:30",0.0,18.6,92.9,1008.1,320.5,0.6,1.9,30.8,0.00,17.5,20.5,"22:28:08",1
"16/06/07","22:40",0.0,18.7,92.3,1008.3,343.7,0.3,0.9,101.7,0.00,17.5,20.4,"22:36:08",1
"16/06/07","22:50",0.0,18.7,90.8,1008.3,329.4,0.7,2.2,351.5,0.00,17.2,20.5,"22:49:12",1
"16/06/07","23:00",0.0,18.7,89.3,1008.6,338.2,0.7,1.9,339.1,0.00,16.9,20.4,"22:59:12",1
"16/06/07","23:10",0.0,18.8,88.8,1008.3,279.4,0.6,1.6,321.7,0.00,17.0,20.4,"23:00:02",1
"16/06/07","23:20",0.0,18.5,89.3,1008.3,306.5,1.5,2.0,338.3,0.00,16.7,20.2,"23:16:00",1
"16/06/07","23:30",0.0,18.5,90.2,1008.3,300.6,1.0,1.6,329.2,0.00,16.9,20.2,"23:28:08",1
"16/06/07","23:40",0.0,18.4,90.8,1008.3,310.9,1.2,2.0,330.6,0.00,16.9,20.3,"23:30:02",1
"16/06/07","23:50",0.0,18.3,91.2,1008.3,312.2,1.3,2.2,329.5,0.00,16.9,20.3,"23:40:24",1
"16/06/07","24:00",0.0,18.2,91.7,1008.3,306.7,1.1,1.7,315.4,0.00,16.9,20.3,"23:53:52",1
